Location: Del Amo
(33.8464°N, 118.2104°W)
Time: 06:55:23
(UTC+00:00)

Vanguard 3 - Pass Details

Date: 20 September 2024
Orbit: 507 x 3223 km, 33.3° (Epoch: 12 October)

Event Time Altitude Azimuth Distance (km) Brightness Sun altitude
Exits shadow 12:00:15 17° 219° (SW) 4,453 10.4 -21.2°
Maximum altitude 12:12:59 57° 148° (SSE) 3,355 10.3 -18.7°
Drops below altitude 10° 12:32:00 10° 77° (ENE) 6,097 13.0 -14.8°
Sets 12:36:39 0° 74° (ENE) 6,995 13.9 -13.9°
